Detroit Metro, MI

8:00 AM EST on February 24, 2018 (GMT -0500)
Detroit Metro Wayne County

Weather History for KDTW - May, 2013

Change the Weather History Date:

Monday, May 6, 2013

  Actual Average Record
Temperature  
Mean Temperature 61 °F 56 °F  
Max Temperature 74 °F 67 °F 90 °F (1949)
Min Temperature 48 °F 46 °F 31 °F (1974)
Degree Days  
Heating Degree Days 4 9  
Month to date heating degree days 8 59  
Since 1 July heating degree days 5777 5953  
Cooling Degree Days 0 1  
Month to date cooling degree days 5 1  
Year to date cooling degree days 5 7  
Growing Degree Days 10 (Base 50)    
Moisture  
Dew Point 41 °F    
Average Humidity 53    
Maximum Humidity 77    
Minimum Humidity 29    
Precipitation  
Precipitation 0.00 in 0.10 in 1.75 in (1976)
Month to date precipitation 0.00 0.62  
Year to date precipitation 12.31 9.78  
Snow  
Snow 0.00 in 0.00 in T in (1989)
Month to date snowfall 0.0 0.0  
Since 1 July snowfall 47.7 42.5  
Snow Depth 0.00 in    
Sea Level Pressure  
Sea Level Pressure 30.04 in    
Wind  
Wind Speed 6 mph (ENE)    
Max Wind Speed 14 mph    
Max Gust Speed 20 mph    
Visibility 10 miles    
Events      
T = Trace of Precipitation, MM = Missing Value Source: NWS Daily Summary

Daily Weather History Graph

Daily Weather History Graph

Search for Another Location

Airport or City:

Trip Planner

Search our weather history database for the weather conditions in past years. The results will help you decide how hot, cold, wet, or windy it might be!

Date:

Astronomy

May. 06, 2013 Rise Set
Actual Time 6:22 AM EDT 8:38 PM EDT
Civil Twilight 5:51 AM EDT 9:09 PM EDT
Nautical Twilight 5:12 AM EDT 9:48 PM EDT
Astronomical Twilight 4:30 AM EDT 10:30 PM EDT
Moon 4:27 AM EDT (5/6) 5:34 PM EDT (5/6)
Length of Visible Light 15h 18m
Length of Day
14h 16m
Waning Crescent, 11% of the Moon is Illuminated
May 6
Waning Crescent
May 9
New
May 18
First Quarter
May 25
Full
May 31
Last Quarter

Hourly Weather History & Observations

Time (EDT) Temp. Dew Point Humidity Pressure Visibility Wind Dir Wind Speed Gust Speed Precip Events Conditions
12:53 AM 57.9 °F 37.0 °F 46% 30.04 in 10.0 mi NNE 8.1 mph - N/A   Scattered Clouds
1:53 AM 55.0 °F 37.0 °F 51% 30.04 in 10.0 mi NNE 4.6 mph - N/A   Scattered Clouds
2:53 AM 55.0 °F 39.0 °F 55% 30.03 in 10.0 mi NE 3.5 mph - N/A   Scattered Clouds
3:53 AM 51.1 °F 39.0 °F 63% 30.03 in 10.0 mi NNE 3.5 mph - N/A   Mostly Cloudy
4:53 AM 50.0 °F 39.0 °F 66% 30.03 in 10.0 mi NNE 4.6 mph - N/A   Scattered Clouds
5:53 AM 50.0 °F 37.9 °F 63% 30.03 in 10.0 mi Calm Calm - N/A   Mostly Cloudy
6:53 AM 48.9 °F 41.0 °F 74% 30.05 in 10.0 mi NNE 4.6 mph - N/A   Mostly Cloudy
7:53 AM 54.0 °F 37.0 °F 53% 30.06 in 10.0 mi ENE 5.8 mph - N/A   Overcast
8:53 AM 57.9 °F 37.0 °F 46% 30.07 in 10.0 mi ENE 5.8 mph - N/A   Overcast
9:53 AM 61.0 °F 39.0 °F 44% 30.08 in 10.0 mi ESE 8.1 mph - N/A   Overcast
10:53 AM 62.1 °F 41.0 °F 46% 30.08 in 10.0 mi ENE 8.1 mph - N/A   Overcast
11:53 AM 66.0 °F 44.1 °F 45% 30.07 in 10.0 mi East 9.2 mph - N/A   Overcast
12:53 PM 68.0 °F 45.0 °F 43% 30.05 in 10.0 mi NE 8.1 mph - N/A   Overcast
1:53 PM 69.1 °F 46.0 °F 44% 30.04 in 10.0 mi East 9.2 mph - N/A   Overcast
2:53 PM 70.0 °F 46.0 °F 42% 30.03 in 10.0 mi ENE 5.8 mph - N/A   Mostly Cloudy
3:53 PM 72.0 °F 48.0 °F 43% 30.01 in 10.0 mi ENE 8.1 mph 16.1 mph N/A   Mostly Cloudy
4:53 PM 73.0 °F 46.9 °F 39% 30.00 in 10.0 mi East 12.7 mph 18.4 mph N/A   Mostly Cloudy
5:53 PM 72.0 °F 44.1 °F 37% 30.00 in 10.0 mi East 10.4 mph - N/A   Mostly Cloudy
6:53 PM 72.0 °F 42.1 °F 34% 30.00 in 10.0 mi East 8.1 mph - N/A   Mostly Cloudy
7:53 PM 71.1 °F 37.0 °F 29% 30.00 in 10.0 mi East 9.2 mph - N/A   Mostly Cloudy
8:53 PM 68.0 °F 39.9 °F 36% 30.01 in 10.0 mi East 5.8 mph - N/A   Mostly Cloudy
9:53 PM 66.0 °F 41.0 °F 40% 30.02 in 10.0 mi Calm Calm - N/A   Scattered Clouds
10:53 PM 64.0 °F 39.9 °F 41% 30.03 in 10.0 mi Calm Calm - N/A   Partly Cloudy
11:53 PM 61.0 °F 37.0 °F 41% 30.04 in 10.0 mi Calm Calm - N/A   Scattered Clouds